Dewpoint
61 49 50 49 45 41 38 31 15 16 21 17 19 17 9 15 20 15 12 26 47 51 54 56 55 55 53 53 61 62 63 56 58 48 46 62 70 68 68 69 70 71 72 73 74 74 74 74 74 74 74 74 74 74 74 74 73 73 73 73 73 73 73 73 73 72 72 72 71 71 71 71 71 70 70 70 70 70 69 70 70 71 71 71 70 70 70 70 69 69 69 68 68 68 68 68 68
50 44 39 43 43 35 33 26 21 22 21 15 11 16 14 15 15 14 14 26 46 53 57 58 60 61 62 62 63 61 63 64 64 64 67 68 68 68 69 70 70 71 72 73 73 73 73 74 74 74 74 73 74 74 74 73 73 74 74 73 73 73 73 73 72 72 72 72 71 71 71 71 71 70 70 70 70 70 70 69 70 70 70 70 70 69 70 70 69 69 68 68 68 68 67 68 68
53 36 31 39 35 33 30 26 19 22 19 12 7 16 18 15 13 12 14 30 53 56 58 58 58 58 60 60 59 59 59 66 66 66 66 67 66 67 69 70 70 71 72 73 73 73 73 73 73 74 73 73 74 74 73 73 73 73 73 73 73 73 73 73 72 72 72 72 71 71 71 71 71 71 70 70 70 70 70 70 70 70 70 69 69 69 69 70 70 70 70 68 67 67 67 68 68
47 45 36 33 30 25 25 25 23 19 16 12 14 14 16 14 11 18 20 41 53 55 56 57 58 60 59 60 61 63 63 64 66 66 66 66 67 68 69 70 70 71 72 73 73 73 73 74 73 73 73 74 73 73 73 73 73 73 73 73 73 73 73 73 72 72 72 72 71 71 71 71 70 70 70 71 71 71 70 70 70 69 69 69 68 68 69 70 70 69 70 69 69 69 68 69 69
39 46 39 31 25 28 23 25 24 21 15 18 6 11 23 17 11 13 17 30 42 48 55 57 57 59 60 60 60 59 63 66 66 67 67 68 69 68 69 70 70 71 72 73 73 74 74 74 74 73 73 73 73 73 73 73 73 73 73 73 73 73 73 72 72 72 72 72 71 71 71 70 70 70 71 71 71 71 71 72 72 70 70 70 69 69 69 69 69 69 69 69 69 69 69 69 69
32 32 36 31 27 29 21 20 23 20 16 18 15 16 16 14 17 17 19 53 54 55 56 56 55 57 60 61 61 63 66 64 66 66 66 67 68 69 69 69 69 71 72 73 73 74 73 73 73 73 73 72 73 73 73 73 73 73 73 73 73 73 72 72 72 72 72 71 71 71 71 70 70 70 70 70 70 71 72 72 71 71 71 70 69 69 69 69 68 68 68 68 68 69 69 69 69
32 26 28 22 25 26 21 21 19 19 16 18 17 17 17 17 19 17 19 37 53 55 57 57 60 59 59 61 63 65 66 67 66 66 67 68 69 69 69 68 69 71 72 72 73 73 73 73 73 73 73 73 72 72 73 73 73 73 73 73 73 73 72 72 72 72 71 71 71 71 71 71 71 70 70 70 70 70 71 71 71 71 71 70 70 69 69 69 69 69 68 68 69 69 70 70 69
38 24 30 20 20 18 19 20 20 21 20 20 20 19 20 21 19 14 13 38 49 52 57 59 58 59 59 63 60 65 66 66 67 67 68 68 68 68 68 68 70 71 71 73 73 73 74 73 73 73 73 73 72 72 73 73 73 73 73 73 73 72 72 72 72 72 71 71 71 71 71 70 70 70 70 70 70 70 71 71 71 71 71 70 70 69 69 69 69 69 69 69 69 69 68 68 68
28 26 33 18 22 25 19 13 12 15 18 14 12 18 36 24 20 17 15 20 48 54 57 57 58 57 61 62 62 65 66 67 68 68 68 67 67 67 68 69 70 70 70 71 72 72 73 73 73 73 73 72 72 72 71 73 73 73 73 73 72 72 72 72 72 71 72 72 71 71 71 71 70 70 70 70 70 70 70 71 71 71 71 71 70 70 70 70 70 69 69 68 68 68 67 67 67
25 24 18 22 22 20 20 18 17 16 13 13 13 16 16 15 13 13 12 25 50 55 57 61 59 60 62 61 63 65 65 67 67 67 67 67 67 68 68 69 69 69 70 71 71 71 72 72 73 73 72 72 72 72 72 72 72 73 72 72 72 72 72 72 72 72 72 72 72 71 71 71 71 70 70 70 70 70 70 71 71 71 71 71 71 70 70 70 69 68 68 68 67 67 66 66 67
28 21 27 17 18 16 16 14 16 16 15 14 11 12 11 11 10 10 12 20 52 55 60 61 60 61 61 62 62 66 66 66 66 66 67 67 69 68 68 68 69 70 70 71 71 70 70 71 72 72 71 72 73 72 72 72 72 72 72 72 72 72 72 72 72 72 72 72 71 71 71 71 70 70 70 70 70 70 70 70 70 71 71 70 70 70 70 70 69 68 68 68 67 66 67 67 68
22 20 16 18 17 16 15 16 13 11 11 13 12 11 11 7 10 11 39 49 51 57 57 57 60 62 60 61 62 65 66 66 66 67 68 69 68 68 68 69 69 70 70 70 70 70 70 70 70 72 73 73 72 71 72 72 72 72 72 72 72 72 72 71 72 72 72 72 72 71 71 71 70 70 70 70 70 69 70 70 70 70 70 70 70 70 69 69 69 68 67 67 67 67 67 67 68
26 21 17 15 15 15 21 13 11 27 19 11 10 9 7 7 9 10 44 47 54 52 48 57 61 60 59 60 65 65 65 65 66 67 68 67 68 68 69 69 69 70 70 70 70 69 69 71 71 71 72 73 72 72 72 72 72 72 72 72 72 72 71 72 72 72 72 72 71 71 71 71 71 70 70 70 70 69 69 69 70 70 70 70 69 69 69 69 69 68 67 67 67 67 68 68 68
28 21 19 17 20 16 13 14 13 10 7 8 7 8 8 9 6 9 36 43 42 47 51 61 61 62 61 62 63 63 64 65 66 67 66 67 68 68 68 68 68 69 70 70 69 70 70 70 71 70 71 72 71 72 72 72 72 72 72 72 71 71 71 72 72 72 72 71 71 71 71 71 71 71 70 70 70 69 70 69 69 70 69 70 69 69 69 69 68 68 67 67 67 68 68 68 68
25 23 24 22 14 11 11 8 10 6 6 8 9 7 8 13 8 24 40 49 54 57 60 62 62 58 59 60 61 63 64 65 66 66 66 67 67 68 67 67 68 69 69 69 69 69 70 70 71 71 71 71 71 71 71 72 72 72 72 72 71 71 71 72 72 71 71 71 71 71 71 71 71 71 70 70 70 70 70 70 70 70 69 69 69 69 69 69 68 68 67 67 67 68 68 68 69
25 14 19 17 12 9 10 9 10 7 9 10 8 7 8 9 13 10 18 49 55 58 56 57 59 51 60 61 61 64 65 66 66 65 65 66 66 66 67 67 68 68 68 68 69 70 70 71 71 71 71 71 71 71 71 71 72 72 71 72 71 71 71 72 72 71 72 71 71 71 71 71 70 70 70 70 70 70 70 70 70 69 69 69 69 69 69 69 68 68 67 67 67 68 68 68 68
20 15 13 14 10 12 11 12 12 10 11 8 8 7 6 9 10 43 54 55 55 47 61 62 54 61 61 62 64 64 66 67 66 65 65 65 65 66 66 66 67 67 67 68 69 70 70 71 71 71 71 71 71 71 71 71 71 72 72 71 72 71 71 71 71 71 71 71 71 71 70 68 68 69 69 68 70 69 70 70 70 69 69 69 69 69 69 69 69 68 68 67 68 68 68 68 67
18 18 16 15 13 12 17 12 12 10 8 8 8 7 8 9 10 32 49 56 59 60 61 62 62 63 63 64 65 65 66 66 65 64 64 64 65 64 65 65 66 65 66 67 69 70 70 70 70 70 70 70 71 70 71 71 71 71 70 71 71 70 71 71 71 70 70 69 70 70 68 69 67 67 68 70 68 69 69 70 69 69 69 69 69 69 69 69 69 68 68 68 68 68 68 62 62
16 19 17 12 14 14 15 13 11 9 9 10 9 10 9 9 10 11 48 51 55 58 60 61 61 62 63 64 65 66 66 65 65 64 63 63 64 64 64 65 65 65 65 67 68 69 69 68 69 69 69 70 70 70 70 71 70 70 70 70 70 70 71 71 69 70 68 68 68 68 68 67 66 67 68 69 70 70 69 69 69 69 69 69 69 69 69 69 69 69 69 68 68 68 63 61 60
14 15 12 12 14 16 18 14 11 10 10 9 7 8 10 7 10 12 43 51 56 57 58 60 60 61 62 63 65 65 65 65 64 63 63 63 64 63 64 64 64 65 66 66 67 68 68 68 69 69 69 70 70 70 70 70 70 70 70 70 70 69 69 69 69 69 68 67 67 66 66 66 66 66 70 70 69 69 68 70 70 70 70 69 69 69 69 69 68 68 68 69 67 65 62 61 61
12 14 11 10 10 10 10 11 11 11 11 8 7 8 7 8 8 25 47 48 45 53 60 59 60 61 62 64 64 64 64 64 64 64 63 63 64 64 64 64 64 64 65 66 66 66 67 69 69 70 70 70 70 70 70 70 70 70 70 70 69 69 68 68 68 67 67 66 66 66 66 66 65 64 64 65 67 67 66 66 67 66 66 66 69 66 66 66 66 65 64 65 62 63 63 61 61
10 9 10 10 10 9 9 10 11 12 12 9 9 7 6 9 9 29 37 36 38 52 58 61 62 62 63 63 64 64 64 63 64 64 63 63 64 64 64 64 63 64 64 64 65 66 67 69 69 70 70 70 70 70 70 70 70 70 70 70 69 69 68 67 68 67 66 66 66 66 65 64 64 63 63 64 65 65 65 65 65 65 65 65 67 66 65 65 64 64 64 63 63 63 63 62 61
13 12 9 8 8 8 9 10 12 10 9 7 6 7 9 8 10 14 16 12 19 50 60 62 62 62 63 64 64 63 62 63 63 63 63 63 63 63 63 63 63 63 64 64 65 66 67 68 69 70 69 69 69 69 69 70 69 70 70 70 69 68 67 67 67 66 66 66 66 65 64 63 64 63 63 63 64 64 65 65 65 65 64 65 67 66 66 65 65 64 64 63 62 62 63 62 61
12 11 9 10 11 7 8 7 9 11 8 6 7 10 7 7 3 26 54 56 50 62 63 62 62 63 63 63 63 62 61 62 62 63 63 63 63 63 62 62 62 63 63 64 64 66 67 68 69 69 69 69 69 69 69 69 69 69 69 70 68 69 67 66 66 66 66 65 65 64 65 64 63 63 62 63 64 64 64 64 64 64 65 65 65 65 65 65 65 64 63 63 63 63 63 62 61
7 7 8 7 7 6 6 7 7 9 7 6 11 7 5 7 7 51 55 60 62 62 63 63 63 63 63 62 62 61 61 61 62 62 62 63 63 63 62 61 62 62 62 63 64 66 67 68 69 69 69 69 69 69 69 68 68 69 69 68 68 69 66 65 66 66 65 65 65 65 66 64 63 62 62 62 63 63 64 64 64 64 64 64 64 64 64 64 64 64 63 62 62 61 60 61 60
7 7 7 6 5 5 5 5 6 6 6 8 7 5 6 8 55 55 55 61 62 62 62 62 62 62 62 62 61 60 60 60 61 61 61 61 61 61 61 62 62 62 62 63 64 66 67 68 68 68 68 68 68 68 68 68 68 68 68 67 68 68 65 64 65 66 65 65 64 65 65 64 63 62 62 63 63 63 63 63 63 63 63 63 64 64 64 63 63 63 63 62 62 61 61 61 61
6 6 6 3 3 3 4 3 4 5 7 7 4 6 4 8 48 49 58 62 62 62 62 62 62 62 62 61 60 60 60 60 60 60 60 60 60 61 61 61 62 62 62 63 64 65 67 68 68 68 68 69 68 67 67 67 67 67 67 66 67 66 65 66 65 65 65 65 65 65 65 64 62 62 62 62 63 63 62 62 62 63 63 63 63 63 63 63 63 63 63 62 61 61 61 60 60
15 14 13 11 9 6 4 5 5 5 5 5 4 3 5 7 43 53 59 62 62 61 61 61 61 61 61 61 60 60 60 60 60 60 60 59 60 60 60 61 61 60 62 62 63 64 66 67 67 68 68 68 67 67 68 66 66 67 66 66 66 66 66 65 64 64 66 64 64 64 64 64 64 63 63 63 63 62 62 62 62 63 63 63 63 62 62 64 63 63 63 62 62 61 60 60 59
13 15 13 12 7 3 5 4 7 4 5 6 5 4 2 5 11 55 60 62 62 61 61 61 60 61 60 60 60 59 60 60 59 59 60 60 60 60 60 60 61 60 60 61 62 64 65 65 66 67 68 68 66 66 66 66 65 67 65 65 66 66 65 65 64 64 64 64 63 63 64 64 63 62 62 63 64 62 62 62 62 63 64 62 62 63 63 63 63 62 61 62 61 60 59 59 61
15 12 11 3 7 3 3 8 10 5 6 5 5 5 6 6 34 59 61 61 61 61 60 60 60 60 60 60 59 59 59 59 59 59 60 60 60 60 60 60 61 61 61 61 61 62 64 65 65 66 66 66 65 65 65 65 64 65 65 65 66 66 65 65 65 64 64 63 63 63 63 64 63 62 62 62 62 61 61 61 61 62 63 62 62 62 63 62 62 62 60 60 63 59 59 59 60
10 11 9 10 5 6 5 7 8 8 8 7 5 7 5 27 54 59 61 61 61 60 60 60 60 59 59 59 59 59 59 59 59 59 59 60 59 59 59 59 60 60 61 61 61 62 64 64 65 65 66 65 65 65 65 64 64 64 64 65 64 64 65 65 64 63 64 64 63 63 63 64 63 63 62 61 61 61 61 61 61 63 63 63 62 62 62 61 61 61 60 60 59 60 61 61 60
15 8 10 16 5 8 7 13 15 5 6 7 4 15 6 42 56 59 60 61 61 60 60 60 59 59 59 59 59 58 58 59 59 59 59 59 59 59 59 59 60 59 61 61 61 61 63 63 64 64 65 64 63 64 63 63 63 63 64 65 63 63 64 63 63 63 63 63 63 63 62 63 63 62 62 62 61 61 61 61 62 62 63 62 63 62 62 61 61 61 61 60 59 60 61 60 60
19 10 18 16 18 11 7 8 12 6 7 7 4 6 12 42 56 58 60 60 60 59 59 59 59 59 59 59 58 58 58 58 58 58 58 59 59 59 59 59 60 60 61 61 60 61 61 62 64 63 63 63 62 63 61 61 62 62 63 63 62 62 61 61 62 62 63 63 62 62 62 63 63 63 62 62 61 61 61 62 62 62 63 63 62 62 62 62 62 61 60 60 60 60 60 60 60
18 24 10 21 11 12 10 10 10 7 5 3 4 3 10 13 51 57 58 59 58 58 58 59 59 59 58 58 57 57 57 57 57 57 58 59 59 59 59 61 59 59 60 60 59 60 60 61 61 62 62 61 60 61 61 62 62 62 61 61 63 61 60 61 61 62 62 61 61 61 61 63 63 62 61 62 61 63 63 62 61 62 62 62 62 62 62 62 61 60 60 61 61 61 60 60 60
13 18 19 18 23 16 11 12 11 9 7 6 9 7 9 24 46 56 57 57 57 57 58 58 58 58 58 57 57 57 57 57 57 57 58 58 58 59 59 59 58 59 59 59 58 59 59 59 60 61 59 59 59 60 61 61 61 60 60 60 60 59 60 60 61 61 61 60 60 60 62 62 63 62 62 62 61 63 63 61 61 62 62 62 62 61 61 60 60 60 61 60 61 60 60 60 60
17 19 19 24 20 18 16 15 15 15 14 4 7 7 8 40 49 54 55 55 55 57 57 57 58 58 58 57 56 56 57 57 56 56 58 58 58 58 58 58 58 58 59 59 58 58 58 59 58 58 58 58 58 59 59 59 60 59 59 58 59 59 59 60 59 60 60 60 61 61 61 61 62 62 61 61 62 62 61 61 61 62 62 62 61 61 60 60 60 60 60 60 60 60 60 60 61
19 22 24 19 19 17 17 15 12 16 14 10 9 11 18 44 51 53 54 53 52 52 53 55 56 57 57 56 56 56 56 56 54 56 57 58 58 58 58 58 58 58 58 58 58 58 58 57 57 56 57 57 57 56 57 58 58 57 57 57 57 56 58 57 57 56 59 59 60 61 61 62 61 62 62 61 61 63 62 61 61 61 62 61 61 60 60 60 60 59 60 59 59 58 58 59 60
21 21 23 17 17 15 14 12 18 25 20 12 16 12 20 41 41 51 50 50 49 52 53 54 55 56 56 56 55 55 55 53 53 55 56 57 57 57 57 58 58 57 58 58 57 58 57 57 56 56 56 56 55 55 55 56 56 59 58 57 56 55 56 56 54 54 55 58 58 59 60 60 60 61 62 61 61 62 62 62 61 61 62 61 61 61 61 62 61 60 59 59 59 58 58 60 59
29 22 21 16 13 14 14 22 25 27 23 15 17 9 16 26 36 46 47 49 48 52 54 54 55 54 55 55 55 54 53 52 52 53 55 56 56 57 57 58 57 57 58 57 57 57 57 56 56 56 55 53 53 53 52 53 54 57 57 55 57 53 53 54 54 56 56 54 54 55 56 55 58 59 60 62 62 62 62 61 61 61 61 61 61 61 60 60 60 59 58 58 58 59 59 59 58
23 20 14 11 14 12 9 20 28 27 26 17 21 14 21 31 30 39 46 48 47 50 53 54 55 54 54 54 54 54 53 52 51 52 54 55 55 57 57 57 57 57 57 57 57 56 56 56 55 56 55 53 53 55 55 54 56 56 55 54 54 53 52 55 53 53 53 53 53 54 54 53 55 57 59 60 60 60 60 60 60 61 61 62 62 61 60 60 60 59 58 59 58 57 56 56 59
29 24 17 18 16 18 10 14 29 32 30 32 22 22 19 25 21 27 33 34 45 47 50 50 51 52 52 52 53 54 53 52 51 51 53 54 55 56 56 57 57 57 57 57 57 56 56 55 55 56 55 53 56 57 54 55 55 54 53 53 54 53 52 52 52 52 53 56 53 53 53 53 55 55 56 57 60 59 58 58 59 59 59 60 61 60 60 61 61 59 59 58 56 57 57 58 58
22 30 22 21 21 20 22 28 24 20 19 26 18 15 15 21 27 22 25 38 43 46 48 48 51 51 51 51 52 53 53 53 51 50 52 54 54 56 56 57 57 57 57 58 57 56 55 55 55 56 55 55 56 54 54 55 55 53 52 52 50 50 50 50 50 51 50 51 51 52 52 52 52 51 52 54 57 58 57 57 57 58 58 59 59 58 60 61 61 60 59 58 57 57 57 57 56
15 19 28 24 21 24 25 25 23 14 11 23 29 15 13 24 19 22 27 37 42 43 46 46 48 49 49 51 51 52 52 52 51 50 52 53 54 55 56 57 57 57 57 58 58 57 56 55 55 56 56 56 54 53 54 55 53 53 53 52 51 51 50 49 50 51 51 52 52 51 50 50 49 49 50 51 53 54 54 53 54 55 57 57 60 58 58 59 60 61 60 59 59 58 57 55 56
14 25 26 22 21 22 24 26 23 19 29 31 27 24 17 15 20 24 29 34 41 42 43 44 45 47 47 50 51 51 51 52 52 50 51 53 53 55 56 57 57 57 58 58 58 57 56 55 55 56 56 56 54 53 53 54 53 52 51 51 52 51 50 50 51 51 52 53 50 49 48 48 48 49 50 51 52 54 54 53 54 55 55 56 57 55 55 56 56 57 57 58 58 57 56 56 55
17 28 21 19 18 27 29 24 20 23 17 13 21 28 15 16 23 27 27 22 27 39 42 42 42 44 46 47 51 51 51 51 51 51 51 52 53 54 56 56 57 57 58 59 59 58 56 55 56 56 56 54 52 53 53 53 53 51 51 51 51 51 51 52 53 53 52 50 48 47 47 47 48 49 49 50 51 53 54 53 53 54 54 55 56 55 54 54 53 53 54 54 54 55 55 54 55
25 26 25 21 26 31 29 23 20 21 15 12 19 25 14 16 23 23 27 18 19 23 31 40 40 42 44 45 48 51 50 51 51 51 52 52 52 53 55 56 56 57 58 59 59 59 57 56 55 56 55 53 52 52 52 52 52 52 51 51 51 52 53 53 52 51 50 47 46 46 46 47 48 47 48 49 49 51 52 53 53 52 52 53 53 51 52 52 51 51 51 52 52 51 50 52 53
27 20 17 19 24 24 29 26 25 20 9 15 22 28 18 13 21 22 17 19 19 21 26 28 32 35 42 45 47 50 49 49 50 51 51 50 51 52 55 56 56 55 56 58 59 59 57 56 55 55 55 53 52 51 51 51 51 51 51 51 51 52 52 52 52 50 48 46 46 46 46 47 47 47 48 48 49 50 51 53 52 51 52 54 52 50 50 50 49 49 49 49 48 48 48 48 48
19 22 18 15 16 20 19 21 20 12 11 18 23 25 22 12 17 22 27 27 28 25 24 25 27 30 39 44 46 49 48 48 48 49 49 50 52 52 54 55 55 55 56 57 58 58 58 56 55 55 54 53 52 51 50 51 51 51 51 51 52 52 52 52 52 51 49 46 46 46 47 47 46 46 47 48 48 49 51 50 51 49 50 49 50 50 50 50 49 49 48 48 47 47 48 47 46
16 21 19 15 11 15 9 15 10 10 13 18 27 25 19 17 20 23 25 25 27 29 25 25 27 31 38 44 46 47 46 47 47 48 48 49 51 53 53 54 54 55 57 57 57 57 57 56 55 55 54 54 53 53 52 51 51 52 52 52 52 53 52 52 52 51 49 47 47 47 46 45 46 46 46 47 47 47 49 47 48 48 49 50 50 49 48 48 48 48 47 47 46 46 45 45 44
14 12 17 13 6 5 3 10 12 15 18 22 25 27 17 21 21 27 26 28 30 30 32 34 38 40 42 44 45 46 47 47 47 48 48 48 51 53 53 54 54 55 55 56 56 57 57 56 55 55 54 54 53 52 52 51 51 52 52 52 53 53 52 52 52 52 49 48 48 48 47 46 46 45 46 46 47 47 47 48 48 48 48 48 48 48 48 48 48 47 47 47 46 46 45 45 45
9 13 13 17 14 10 3 13 3 8 14 19 25 16 15 15 19 25 31 31 34 38 42 44 44 44 45 46 47 47 48 48 48 49 50 50 50 52 53 54 54 54 55 56 56 56 56 55 55 55 54 54 52 51 52 53 52 53 52 52 53 52 52 52 52 52 50 48 49 48 47 47 46 46 47 46 50 47 48 48 48 48 48 48 48 49 50 49 49 49 48 48 48 46 45 46 44
18 16 10 10 11 19 9 17 15 17 14 13 15 13 23 19 24 29 31 35 40 43 44 46 46 46 47 47 47 47 49 51 53 54 53 53 53 52 52 53 54 54 55 56 56 56 56 56 55 55 54 53 51 51 53 55 53 53 53 52 52 53 53 53 53 52 51 50 49 48 48 47 47 47 46 48 48 48 48 48 48 47 48 48 48 49 49 49 47 47 46 46 46 47 44 44 44
17 7 11 15 18 19 17 17 21 16 17 8 16 17 19 24 22 27 27 30 33 37 43 44 45 46 46 46 47 48 50 52 52 54 54 53 54 53 53 53 53 54 55 56 56 56 56 56 55 55 55 54 53 53 54 54 54 54 53 52 52 52 53 53 53 51 51 51 50 49 49 48 48 48 48 50 48 47 48 47 47 47 47 48 48 48 48 47 47 47 46 46 46 45 45 44 44
13 6 11 21 23 24 19 11 14 10 6 10 15 11 16 18 17 26 26 29 30 35 39 42 44 45 45 46 47 48 49 50 51 51 52 52 53 53 53 52 53 54 55 55 55 56 56 56 55 55 55 54 54 55 55 53 54 54 52 52 52 52 53 53 52 51 51 51 50 49 49 49 48 48 49 50 48 47 47 51 47 47 47 47 48 47 47 47 46 46 46 46 46 46 46 46 46
10 12 16 13 10 10 17 18 7 6 6 6 14 17 19 17 21 25 24 26 31 35 38 40 44 45 46 46 47 48 49 50 51 52 52 52 52 52 52 52 53 53 53 54 54 54 55 55 55 55 54 55 56 56 55 54 54 55 53 52 52 53 54 54 54 52 52 51 50 49 49 49 49 49 50 50 47 47 48 47 47 46 46 47 47 47 47 47 46 46 46 47 46 46 46 45 45
17 12 10 19 21 21 11 14 17 15 4 5 11 18 15 27 23 26 28 29 30 35 36 38 41 43 45 45 46 48 49 50 50 50 51 51 50 51 52 51 52 52 52 53 53 53 54 54 54 54 54 55 56 55 55 54 54 56 56 55 53 54 54 54 52 52 51 51 50 50 50 50 50 50 49 50 48 48 49 47 47 47 47 47 47 46 47 47 46 47 47 46 45 45 45 44 44
12 12 15 15 21 23 17 21 12 13 8 5 8 9 19 25 29 30 31 30 30 32 35 39 41 43 44 45 46 47 47 48 48 50 49 49 49 49 49 50 52 52 52 52 52 52 53 54 54 54 54 54 54 55 55 55 56 56 55 55 55 54 55 54 52 52 51 51 51 51 50 50 51 50 50 50 49 48 49 48 47 48 47 48 47 47 47 46 46 46 46 46 45 45 45 43 45
12 11 16 11 17 12 9 9 21 20 15 9 8 8 20 26 34 35 35 34 34 32 39 40 41 43 44 45 46 47 47 47 47 48 48 47 48 47 48 49 50 50 51 51 51 51 52 53 54 53 54 54 54 55 55 55 55 55 54 53 54 55 55 53 51 51 51 51 51 51 50 51 50 50 51 51 49 48 49 48 47 47 47 47 47 47 47 46 46 47 46 46 46 46 44 44 43